Starlink 4296

operational
NORAD ID: 52995 Int'l Des: 2022-076 Owner: SPXS Country: US Constellation: starlink
LEOCIRCULAR

About Starlink 4296

Description loading...

Live Position

Loading 3D Globe...

Upcoming Passes

Altitude History

Altitude vs Time

uPlot chart will show altitude changes over time

Two-Line Element Set

1 52995U 22076K 25350.36305680 .00000751 00000-0 65276-4 0 9996
2 52995 53.2164 108.1888 0001194 88.1869 271.9260 15.08836347190262
Epoch: Dec 16, 2025 • Age: 20 hours

Current Status

Altitude 544.1 km
Velocity 7.60 km/s
Sub-Earth Point 46.87°N, 81.5°E
Launch Date Jul 7, 2022
Age 3.4 years
Type internet

Technical Details

Classification Payload
Mass 297.00 kg
Dry Mass 275.00 kg
Total Mass 297.00 kg
Length 0.20 m
Diameter 2.80 m
Span 9.00 m
Shape Box + pan
Manufacturer SPXS
Bus Type Starlink
Phase Status In Orbit
Owner/State SPXS/US

Large Constellations

Loading constellations...